Overview Statistics Trail Chart Weather Telemetry Raw packets
 

This is the latest recevied weather packets stored in our database for station/object K5BOU. If no packets are shown the sender has not sent any weather packets the latest 10 day(s).

<< 51 52 53 54 55 56 57 >>
Time Temp. Humidity Pressure Rain* Wind** Luminosity Snow
1788313908 27.22° C 92% 1011.1 hPa 0 mm - 0 W/m² -
1788313585 27.22° C 92% 1011.1 hPa 0 mm - 0 W/m² -
1788313280 27.22° C 91% 1011.2 hPa 0 mm - 0 W/m² -
1788312980 27.22° C 91% 1010.9 hPa 0 mm - 0 W/m² -
1788312675 27.78° C 90% 1010.7 hPa 0 mm - 0 W/m² -
1788312371 27.78° C 89% 1011 hPa 0 mm - 0 W/m² -
1788312066 27.78° C 89% 1010.9 hPa 0 mm - 0 W/m² -
1788311762 27.78° C 88% 1010.8 hPa 0 mm - 0 W/m² -
1788311461 28.33° C 86% 1011 hPa 0 mm - 0 W/m² -
1788311160 28.89° C 85% 1010.8 hPa 0 mm - 0 W/m² -
1788310856 29.44° C 82% 1011 hPa 0 mm - 0 W/m² -
1788310554 29.44° C 80% 1011 hPa 0 mm - 0 W/m² -
1788310251 29.44° C 80% 1011 hPa 0 mm - 0 W/m² -
1788309949 29.44° C 80% 1011.2 hPa 0 mm - 2 W/m² -
1788309645 29.44° C 81% 1011.2 hPa 0 mm - 4 W/m² -
1788309340 29.44° C 81% 1011.2 hPa 0 mm - 8 W/m² -
1788309039 29.44° C 81% 1011 hPa 0 mm - 12 W/m² -
1788308732 29.44° C 81% 1011.1 hPa 0 mm - 17 W/m² -
1788308426 30° C 81% 1011.2 hPa 0 mm - 23 W/m² -
1788308121 30° C 80% 1011.2 hPa 0 mm - 29 W/m² -
1788307816 30° C 81% 1011 hPa 0 mm - 34 W/m² -
1788307511 30° C 80% 1011.1 hPa 0 mm - 38 W/m² -
1788307206 30° C 79% 1011 hPa 0 mm - 42 W/m² -
1788306901 30.56° C 79% 1010.9 hPa 0 mm - 45 W/m² -
1788306596 31.11° C 78% 1011 hPa 0 mm - 48 W/m² -

* Rain latest hour (hover to see other rain measurements)
** Current wind speed in m/s (hover to see current wind gust speed)